Time,TemperatureF,DewpointF,PressureIn,WindDirection,WindDirectionDegrees,WindSpeedMPH,WindSpeedGustMPH,Humidity,HourlyPrecipIn,Conditions,Clouds,dailyrainin,SolarRadiationWatts/m^2,SoftwareType,DateUTC
2013-05-11 00:12:00,41.0,29.0,-100.00,SE,128,10.0,14.0,61,0.00,,,0.00,0.000000,,2013-05-11 06:12:00,
2013-05-11 00:21:00,41.0,29.0,-100.00,SE,128,10.0,14.0,61,0.00,,,0.00,0.000000,,2013-05-11 06:21:00,
2013-05-11 00:32:00,41.0,29.0,-100.00,SE,128,10.0,14.0,61,0.00,,,0.00,0.000000,,2013-05-11 06:32:00,
2013-05-11 00:42:00,41.0,29.0,-100.00,SE,128,10.0,14.0,61,0.00,,,0.00,0.000000,,2013-05-11 06:42:00,
2013-05-11 01:11:00,40.0,28.0,-100.00,SE,137,10.0,14.0,61,0.00,,,0.00,0.000000,,2013-05-11 07:11:00,
2013-05-11 01:21:00,40.0,28.0,-100.00,SE,137,10.0,14.0,61,0.00,,,0.00,0.000000,,2013-05-11 07:21:00,
2013-05-11 01:32:00,40.0,28.0,-100.00,SE,137,10.0,14.0,61,0.00,,,0.00,0.000000,,2013-05-11 07:32:00,
2013-05-11 01:41:00,40.0,28.0,-100.00,SE,137,10.0,14.0,61,0.00,,,0.00,0.000000,,2013-05-11 07:41:00,
2013-05-11 02:21:00,39.0,27.0,-100.00,SE,133,8.0,12.0,62,0.00,,,0.00,0.000000,,2013-05-11 08:21:00,
2013-05-11 02:31:00,39.0,27.0,-100.00,SE,133,8.0,12.0,62,0.00,,,0.00,0.000000,,2013-05-11 08:31:00,
2013-05-11 02:42:00,39.0,27.0,-100.00,SE,133,8.0,12.0,62,0.00,,,0.00,0.000000,,2013-05-11 08:42:00,
2013-05-11 03:21:00,39.0,26.0,-100.00,SSE,155,9.0,11.0,60,0.00,,,0.00,0.000000,,2013-05-11 09:21:00,
2013-05-11 03:32:00,39.0,26.0,-100.00,SSE,155,9.0,11.0,60,0.00,,,0.00,0.000000,,2013-05-11 09:32:00,
2013-05-11 03:42:00,39.0,26.0,-100.00,SSE,155,9.0,11.0,60,0.00,,,0.00,0.000000,,2013-05-11 09:42:00,
2013-05-11 04:22:00,38.0,26.0,-100.00,SE,130,8.0,11.0,62,0.00,,,0.00,0.000000,,2013-05-11 10:22:00,
2013-05-11 04:33:00,38.0,26.0,-100.00,SE,130,8.0,11.0,62,0.00,,,0.00,0.000000,,2013-05-11 10:33:00,
2013-05-11 04:42:00,38.0,26.0,-100.00,SE,130,8.0,11.0,62,0.00,,,0.00,0.000000,,2013-05-11 10:42:00,
2013-05-11 05:11:00,38.0,25.0,-100.00,SE,129,8.0,10.0,60,0.00,,,0.00,0.000000,,2013-05-11 11:11:00,
2013-05-11 05:21:00,38.0,25.0,-100.00,SE,129,8.0,10.0,60,0.00,,,0.00,0.000000,,2013-05-11 11:21:00,
2013-05-11 05:32:00,38.0,25.0,-100.00,SE,129,8.0,10.0,60,0.00,,,0.00,0.000000,,2013-05-11 11:32:00,
2013-05-11 05:42:00,38.0,25.0,-100.00,SE,129,8.0,10.0,60,0.00,,,0.00,0.000000,,2013-05-11 11:42:00,
2013-05-11 06:21:00,36.0,24.0,-100.00,SE,145,8.0,14.0,62,-99.99,,,-99.99,0.000000,,2013-05-11 12:21:00,
2013-05-11 06:32:00,36.0,24.0,-100.00,SE,145,8.0,14.0,62,-99.99,,,-99.99,0.000000,,2013-05-11 12:32:00,
2013-05-11 06:42:00,36.0,24.0,-100.00,SE,145,8.0,14.0,62,-99.99,,,-99.99,0.000000,,2013-05-11 12:42:00,
2013-05-11 07:41:00,39.0,26.0,-100.00,SE,129,8.0,14.0,59,0.00,,,-99.99,56.000000,,2013-05-11 13:41:00,
2013-05-11 08:41:00,43.0,26.0,-100.00,ESE,122,5.0,11.0,50,0.00,,,0.00,272.000000,,2013-05-11 14:41:00,
2013-05-11 09:11:00,49.0,29.0,-100.00,NNE,13,3.0,7.0,45,0.00,,,0.00,517.000000,,2013-05-11 15:11:00,
2013-05-11 09:42:00,49.0,29.0,-100.00,NNE,13,3.0,7.0,45,0.00,,,0.00,517.000000,,2013-05-11 15:42:00,
2013-05-11 10:22:00,52.0,28.0,-100.00,NNW,339,4.0,7.0,40,0.00,,,0.00,751.000000,,2013-05-11 16:22:00,
2013-05-11 10:33:00,52.0,28.0,-100.00,NNW,339,4.0,7.0,40,0.00,,,0.00,751.000000,,2013-05-11 16:33:00,
2013-05-11 10:42:00,52.0,28.0,-100.00,NNW,339,4.0,7.0,40,0.00,,,0.00,751.000000,,2013-05-11 16:42:00,
2013-05-11 11:12:00,56.0,30.0,-100.00,North,354,5.0,12.0,37,0.00,,,0.00,931.000000,,2013-05-11 17:12:00,
2013-05-11 11:22:00,56.0,30.0,-100.00,North,354,5.0,12.0,37,0.00,,,0.00,931.000000,,2013-05-11 17:22:00,
2013-05-11 11:31:00,56.0,30.0,-100.00,North,354,5.0,12.0,37,0.00,,,0.00,931.000000,,2013-05-11 17:31:00,
2013-05-11 11:41:00,56.0,30.0,-100.00,North,354,5.0,12.0,37,0.00,,,0.00,931.000000,,2013-05-11 17:41:00,
2013-05-11 12:21:00,61.0,27.0,-100.00,North,352,9.0,15.0,27,0.00,,,0.00,1095.000000,,2013-05-11 18:21:00,
2013-05-11 12:32:00,61.0,27.0,-100.00,North,352,9.0,15.0,27,0.00,,,0.00,1095.000000,,2013-05-11 18:32:00,
2013-05-11 12:41:00,61.0,27.0,-100.00,North,352,9.0,15.0,27,0.00,,,0.00,1095.000000,,2013-05-11 18:41:00,
2013-05-11 13:11:00,65.0,25.0,-100.00,NE,39,6.0,15.0,22,0.00,,,0.00,1219.000000,,2013-05-11 19:11:00,
2013-05-11 13:41:00,65.0,25.0,-100.00,NE,39,6.0,15.0,22,0.00,,,0.00,1219.000000,,2013-05-11 19:41:00,
2013-05-11 14:22:00,64.0,26.0,-100.00,NNW,327,7.0,21.0,24,0.00,,,0.00,1122.000000,,2013-05-11 20:22:00,
2013-05-11 14:32:00,64.0,26.0,-100.00,NNW,327,7.0,21.0,24,0.00,,,0.00,1122.000000,,2013-05-11 20:32:00,
2013-05-11 14:42:00,64.0,26.0,-100.00,NNW,327,7.0,21.0,24,0.00,,,0.00,1122.000000,,2013-05-11 20:42:00,
2013-05-11 15:11:00,65.0,27.0,-100.00,North,352,8.0,20.0,24,0.00,,,-99.99,846.000000,,2013-05-11 21:11:00,
2013-05-11 15:21:00,65.0,27.0,-100.00,North,352,8.0,20.0,24,0.00,,,-99.99,846.000000,,2013-05-11 21:21:00,
2013-05-11 15:33:00,65.0,27.0,-100.00,North,352,8.0,20.0,24,0.00,,,-99.99,846.000000,,2013-05-11 21:33:00,
2013-05-11 15:43:00,65.0,27.0,-100.00,North,352,8.0,20.0,24,0.00,,,-99.99,846.000000,,2013-05-11 21:43:00,
2013-05-11 16:23:00,63.0,27.0,-100.00,NW,305,11.0,24.0,25,0.00,,,0.00,903.000000,,2013-05-11 22:23:00,
2013-05-11 16:33:00,63.0,27.0,-100.00,NW,305,11.0,24.0,25,0.00,,,0.00,903.000000,,2013-05-11 22:33:00,
2013-05-11 16:42:00,63.0,27.0,-100.00,NW,305,11.0,24.0,25,0.00,,,0.00,903.000000,,2013-05-11 22:42:00,
2013-05-11 17:42:00,64.0,24.0,-100.00,NW,314,7.0,21.0,22,0.00,,,0.00,837.000000,,2013-05-11 23:42:00,
2013-05-11 18:21:00,62.0,20.0,-100.00,West,278,8.0,21.0,20,0.00,,,0.00,637.000000,,2013-05-12 00:21:00,
2013-05-11 18:32:00,62.0,20.0,-100.00,West,278,8.0,21.0,20,0.00,,,0.00,637.000000,,2013-05-12 00:32:00,
2013-05-11 18:42:00,62.0,20.0,-100.00,West,278,8.0,21.0,20,0.00,,,0.00,637.000000,,2013-05-12 00:42:00,
2013-05-11 19:11:00,55.0,23.0,-100.00,NW,323,19.0,29.0,28,0.00,,,0.00,273.000000,,2013-05-12 01:11:00,
2013-05-11 19:21:00,55.0,23.0,-100.00,NW,323,19.0,29.0,28,0.00,,,0.00,273.000000,,2013-05-12 01:21:00,
2013-05-11 19:31:00,55.0,23.0,-100.00,NW,323,19.0,29.0,28,0.00,,,0.00,273.000000,,2013-05-12 01:31:00,
2013-05-11 19:41:00,55.0,23.0,-100.00,NW,323,19.0,29.0,28,0.00,,,0.00,273.000000,,2013-05-12 01:41:00,
2013-05-11 20:11:00,54.0,23.0,-100.00,NW,309,10.0,25.0,30,0.00,,,0.00,74.000000,,2013-05-12 02:11:00,
2013-05-11 20:22:00,54.0,23.0,-100.00,NW,309,10.0,25.0,30,0.00,,,0.00,74.000000,,2013-05-12 02:22:00,
2013-05-11 20:31:00,54.0,23.0,-100.00,NW,309,10.0,25.0,30,0.00,,,0.00,74.000000,,2013-05-12 02:31:00,
2013-05-11 20:41:00,54.0,23.0,-100.00,NW,309,10.0,25.0,30,0.00,,,0.00,74.000000,,2013-05-12 02:41:00,
2013-05-11 21:22:00,51.0,25.0,-100.00,West,262,5.0,13.0,36,0.00,,,0.00,7.000000,,2013-05-12 03:22:00,
2013-05-11 21:32:00,51.0,25.0,-100.00,West,262,5.0,13.0,36,0.00,,,0.00,7.000000,,2013-05-12 03:32:00,
2013-05-11 21:42:00,51.0,25.0,-100.00,West,262,5.0,13.0,36,0.00,,,0.00,7.000000,,2013-05-12 03:42:00,
2013-05-11 22:22:00,50.0,24.0,-100.00,WNW,291,2.0,12.0,36,0.00,,,0.00,0.000000,,2013-05-12 04:22:00,
2013-05-11 22:33:00,50.0,24.0,-100.00,WNW,291,2.0,12.0,36,0.00,,,0.00,0.000000,,2013-05-12 04:33:00,
2013-05-11 22:43:00,50.0,24.0,-100.00,WNW,291,2.0,12.0,36,0.00,,,0.00,0.000000,,2013-05-12 04:43:00,
2013-05-11 23:11:00,46.0,27.0,-100.00,SSE,147,6.0,12.0,48,0.00,,,0.00,0.000000,,2013-05-12 05:11:00,
2013-05-11 23:22:00,46.0,27.0,-100.00,SSE,147,6.0,12.0,48,0.00,,,0.00,0.000000,,2013-05-12 05:22:00,
2013-05-11 23:31:00,46.0,27.0,-100.00,SSE,147,6.0,12.0,48,0.00,,,0.00,0.000000,,2013-05-12 05:31:00,
2013-05-11 23:42:00,46.0,27.0,-100.00,SSE,147,6.0,12.0,48,0.00,,,0.00,0.000000,,2013-05-12 05:42:00,